Location: Unspecified
(0.0000°N, 0.0000°E)
Time: 11:19:05
(UTC+02:00)

Orbus 21S - Visible Passes

Search period start: 23 April 2014 00:00
Search period end: 03 May 2014 00:00
Orbit: 272 x 33585 km, 24.0° (Epoch: 21 April)

Date Brightness Start Highest point End Pass type
(mag) Time Alt. Az. Time Alt. Az. Time Alt. Az.
23 Apr 8.2 00:30:11 26° ENE 00:30:11 26° ENE 09:00:52 10° E visible
24 Apr 6.4 06:00:33 18° WNW 14:52:57 69° SW 15:03:51 10° SE visible
25 Apr 7.8 01:40:44 51° ENE 01:40:44 51° ENE 10:25:57 10° E visible
26 Apr 5.9 07:21:38 10° WNW 16:09:16 40° SW 16:16:41 10° SSE visible
27 Apr 7.6 02:50:59 71° N 02:50:59 71° N 11:44:23 10° ESE visible
29 Apr 7.6 04:00:57 51° WNW 12:35:36 85° NNE 12:59:45 10° ESE visible
29 Apr 8.4 23:40:51 17° ENE 23:40:51 17° ENE 08:03:30 10° E visible
01 May 6.8 05:10:38 25° WNW 13:59:45 74° SW 14:13:22 10° SE visible
02 May 7.9 00:50:25 41° ENE 00:50:25 41° ENE 09:32:12 10° E visible
